| time (UTC) | temp C | wind direction | speed KPH | gust KPH | rain 1hr cm | rain 24hr cm | rain mn cm | humidity % | barometer mb |
| 20260509055006 | 9 | 344 | 6.4 | 9.7 | 0.00 | 0.00 | 0.00 | 94 | 1017.7 |
| 20260509055002 | 9 | 29 | 4.8 | 9.7 | 0.00 | 0.00 | 0.00 | 96 | 1019.7 |
| 20260509054505 | 9 | 339 | 6.4 | 9.7 | 0.00 | 0.00 | 0.00 | 94 | 1017.6 |
| 20260509054503 | 9 | 31 | 4.8 | 9.7 | 0.00 | 0.00 | 0.00 | 97 | 1019.6 |
| 20260509054005 | 9 | 325 | 6.4 | 9.7 | 0.00 | 0.00 | 0.00 | 95 | 1017.7 |
| 20260509054003 | 9 | 30 | 4.8 | 9.7 | 0.00 | 0.00 | 0.00 | 97 | 1019.5 |
| 20260509053502 | 9 | 21 | 6.4 | 9.7 | 0.00 | 0.00 | 0.00 | 98 | 1019.8 |
| 20260509053005 | 9 | 339 | 6.4 | 12.9 | 0.00 | 0.00 | 0.00 | 96 | 1017.5 |
| 20260509053003 | 9 | 8 | 6.4 | 9.7 | 0.00 | 0.00 | 0.00 | 99 | 1019.7 |
| 20260509052505 | 9 | 334 | 8.0 | 11.3 | 0.00 | 0.00 | 0.00 | 96 | 1017.6 |
| 20260509052502 | 8 | 354 | 8.0 | 11.3 | 0.00 | 0.00 | 0.00 | 99 | 1019.7 |
| 20260509052003 | 8 | 357 | 6.4 | 11.3 | 0.00 | 0.00 | 0.00 | 99 | 1019.8 |
| 20260509051506 | 8 | 332 | 4.8 | 11.3 | 0.00 | 0.00 | 0.00 | 97 | 1017.5 |
| 20260509051005 | 8 | 316 | 6.4 | 11.3 | 0.00 | 0.00 | 0.00 | 97 | 1017.4 |
| 20260509051002 | 8 | 341 | 6.4 | 11.3 | 0.00 | 0.00 | 0.00 | 99 | 1019.9 |
| 20260509050505 | 8 | 331 | 6.4 | 9.7 | 0.00 | 0.00 | 0.00 | 97 | 1017.3 |
| 20260509050503 | 8 | 343 | 6.4 | 9.7 | 0.00 | 0.00 | 0.00 | 99 | 1019.6 |
| 20260509050009 | 8 | 3 | 6.4 | 11.3 | 0.00 | 0.00 | 0.00 | 99 | 1019.6 |
| 20260509050006 | 8 | 344 | 8.0 | 11.3 | 0.00 | 0.00 | 0.00 | 98 | 1017.4 |
| 20260509045505 | 8 | 338 | 8.0 | 11.3 | 0.00 | 0.00 | 0.00 | 98 | 1017.5 |
| 20260509045503 | 8 | 356 | 8.0 | 11.3 | 0.00 | 0.00 | 0.00 | 99 | 1019.7 |
| 20260509045005 | 8 | 336 | 6.4 | 11.3 | 0.00 | 0.00 | 0.00 | 98 | 1017.3 |
| 20260509045003 | 8 | 336 | 6.4 | 9.7 | 0.00 | 0.00 | 0.00 | 99 | 1019.7 |
| 20260509044506 | 8 | 336 | 4.8 | 11.3 | 0.00 | 0.00 | 0.00 | 98 | 1017.4 |
| 20260509044503 | 8 | 335 | 4.8 | 9.7 | 0.00 | 0.00 | 0.00 | 99 | 1019.6 |
| 20260509044003 | 8 | 335 | 4.8 | 6.4 | 0.00 | 0.00 | 0.00 | 99 | 1019.4 |
| 20260509043505 | 8 | 331 | 4.8 | 8.0 | 0.00 | 0.00 | 0.00 | 98 | 1017.1 |
| 20260509043006 | 8 | 321 | 3.2 | 4.8 | 0.00 | 0.00 | 0.00 | 99 | 1017.1 |
| 20260509043003 | 8 | 348 | 3.2 | 6.4 | 0.00 | 0.00 | 0.00 | 99 | 1019.4 |
| 20260509042505 | 8 | 319 | 3.2 | 4.8 | 0.00 | 0.00 | 0.00 | 99 | 1017.2 |
| 20260509042003 | 8 | 357 | 3.2 | 6.4 | 0.00 | 0.00 | 0.00 | 99 | 1019.4 |
| 20260509041506 | 8 | 345 | 4.8 | 6.4 | 0.00 | 0.00 | 0.00 | 99 | 1017.2 |
| 20260509041502 | 8 | 4 | 4.8 | 6.4 | 0.00 | 0.00 | 0.00 | 99 | 1019.4 |
| 20260509041006 | 8 | 320 | 3.2 | 6.4 | 0.00 | 0.00 | 0.00 | 99 | 1017.0 |
| 20260509041003 | 8 | 16 | 4.8 | 6.4 | 0.00 | 0.00 | 0.00 | 99 | 1019.5 |
| 20260509040505 | 8 | 310 | 4.8 | 8.0 | 0.00 | 0.00 | 0.00 | 99 | 1017.2 |
| 20260509040502 | 8 | 9 | 3.2 | 4.8 | 0.00 | 0.00 | 0.00 | 99 | 1019.4 |
| 20260509040009 | 8 | 339 | 4.8 | 8.0 | 0.00 | 0.00 | 0.00 | 99 | 1019.5 |
| 20260509040006 | 8 | 327 | 4.8 | 8.0 | 0.00 | 0.00 | 0.00 | 99 | 1017.0 |
| 20260509035505 | 8 | 343 | 4.8 | 8.0 | 0.00 | 0.00 | 0.00 | 99 | 1017.0 |
| 20260509035502 | 8 | 347 | 4.8 | 8.0 | 0.00 | 0.00 | 0.00 | 99 | 1019.4 |
| 20260509035003 | 8 | 1 | 4.8 | 6.4 | 0.00 | 0.00 | 0.00 | 99 | 1019.3 |
| 20260509034503 | 8 | 347 | 3.2 | 6.4 | 0.00 | 0.00 | 0.00 | 99 | 1019.3 |
| 20260509034006 | 8 | 310 | 1.6 | 4.8 | 0.00 | 0.00 | 0.00 | 98 | 1017.0 |
| 20260509034003 | 8 | 316 | 3.2 | 6.4 | 0.00 | 0.00 | 0.00 | 99 | 1019.2 |
| 20260509033505 | 8 | 340 | 0.0 | 3.2 | 0.00 | 0.00 | 0.00 | 98 | 1017.0 |
| 20260509033503 | 8 | 312 | 1.6 | 3.2 | 0.00 | 0.00 | 0.00 | 99 | 1019.3 |
| 20260509033006 | 8 | 327 | 0.0 | 3.2 | 0.00 | 0.00 | 0.00 | 98 | 1017.0 |
| 20260509033002 | 8 | 339 | 1.6 | 3.2 | 0.00 | 0.00 | 0.00 | 99 | 1019.4 |
| 20260509032506 | 8 | 334 | 0.0 | 3.2 | 0.00 | 0.00 | 0.00 | 98 | 1017.0 |
| 20260509032503 | 8 | 349 | 1.6 | 4.8 | 0.00 | 0.00 | 0.00 | 99 | 1019.5 |
| 20260509032003 | 8 | 350 | 1.6 | 4.8 | 0.00 | 0.00 | 0.00 | 99 | 1019.3 |
| 20260509031505 | 8 | 346 | 0.0 | 3.2 | 0.00 | 0.00 | 0.00 | 98 | 1016.9 |
| 20260509031503 | 8 | 314 | 1.6 | 3.2 | 0.00 | 0.00 | 0.00 | 99 | 1019.3 |
| 20260509031006 | 8 | 346 | 0.0 | 3.2 | 0.00 | 0.00 | 0.00 | 98 | 1017.0 |
| 20260509031003 | 8 | 317 | 1.6 | 3.2 | 0.00 | 0.00 | 0.00 | 99 | 1019.0 |
| 20260509030502 | 8 | 311 | 1.6 | 3.2 | 0.00 | 0.00 | 0.00 | 99 | 1019.3 |
| 20260509030009 | 8 | 330 | 1.6 | 3.2 | 0.00 | 0.00 | 0.00 | 99 | 1019.2 |
| 20260509030006 | 8 | 0 | 0.0 | 0.0 | 0.00 | 0.00 | 0.00 | 98 | 1017.0 |
| 20260509025506 | 8 | 324 | 1.6 | 3.2 | 0.00 | 0.00 | 0.00 | 98 | 1017.1 |
| 20260509025503 | 8 | 351 | 1.6 | 3.2 | 0.00 | 0.00 | 0.00 | 99 | 1019.3 |
| 20260509025005 | 8 | 327 | 1.6 | 3.2 | 0.00 | 0.00 | 0.00 | 98 | 1017.1 |
| 20260509024506 | 8 | 300 | 1.6 | 3.2 | 0.00 | 0.00 | 0.00 | 98 | 1017.1 |
| 20260509024502 | 8 | 2 | 1.6 | 3.2 | 0.00 | 0.00 | 0.00 | 99 | 1019.2 |
| 20260509024005 | 8 | 298 | 1.6 | 3.2 | 0.00 | 0.00 | 0.00 | 98 | 1017.1 |
| 20260509024003 | 8 | 345 | 1.6 | 4.8 | 0.00 | 0.00 | 0.00 | 99 | 1019.3 |
| 20260509023505 | 8 | 315 | 1.6 | 4.8 | 0.00 | 0.00 | 0.00 | 98 | 1017.0 |
| 20260509023503 | 8 | 338 | 3.2 | 4.8 | 0.00 | 0.00 | 0.00 | 99 | 1019.5 |
| 20260509023006 | 8 | 320 | 1.6 | 4.8 | 0.00 | 0.00 | 0.00 | 98 | 1017.0 |
| 20260509023003 | 8 | 323 | 3.2 | 4.8 | 0.00 | 0.00 | 0.00 | 99 | 1019.1 |
| 20260509022505 | 8 | 0 | 0.0 | 0.0 | 0.00 | 0.00 | 0.00 | 98 | 1017.1 |
| 20260509022503 | 8 | 307 | 1.6 | 3.2 | 0.00 | 0.00 | 0.00 | 99 | 1019.4 |
| 20260509022006 | 8 | 0 | 0.0 | 0.0 | 0.00 | 0.00 | 0.00 | 98 | 1017.1 |
| 20260509022003 | 8 | 292 | 1.6 | 3.2 | 0.00 | 0.00 | 0.00 | 99 | 1019.3 |
| 20260509021503 | 8 | 282 | 3.2 | 3.2 | 0.00 | 0.00 | 0.00 | 99 | 1019.3 |
| 20260509021005 | 8 | 0 | 0.0 | 0.0 | 0.00 | 0.00 | 0.00 | 98 | 1017.3 |
| 20260509021003 | 8 | 286 | 1.6 | 3.2 | 0.00 | 0.00 | 0.00 | 99 | 1019.4 |
| 20260509020506 | 8 | 0 | 0.0 | 0.0 | 0.00 | 0.00 | 0.00 | 98 | 1017.2 |
| 20260509020503 | 8 | 269 | 1.6 | 4.8 | 0.00 | 0.00 | 0.00 | 99 | 1019.4 |
| 20260509020009 | 8 | 268 | 3.2 | 4.8 | 0.00 | 0.00 | 0.00 | 99 | 1019.3 |
| 20260509020006 | 8 | 0 | 0.0 | 0.0 | 0.00 | 0.00 | 0.00 | 98 | 1017.2 |
| 20260509015506 | 8 | 0 | 0.0 | 0.0 | 0.00 | 0.00 | 0.00 | 97 | 1017.4 |
| 20260509015502 | 8 | 274 | 3.2 | 3.2 | 0.00 | 0.00 | 0.00 | 99 | 1019.3 |
| 20260509015006 | 8 | 0 | 0.0 | 0.0 | 0.00 | 0.00 | 0.00 | 97 | 1017.1 |
| 20260509015003 | 8 | 269 | 1.6 | 3.2 | 0.00 | 0.00 | 0.00 | 99 | 1019.3 |
| 20260509014505 | 8 | 0 | 0.0 | 0.0 | 0.00 | 0.00 | 0.00 | 97 | 1017.0 |
| 20260509014005 | 8 | 0 | 0.0 | 0.0 | 0.00 | 0.00 | 0.00 | 97 | 1017.1 |
| 20260509014003 | 8 | 240 | 1.6 | 3.2 | 0.00 | 0.00 | 0.00 | 99 | 1019.3 |
| 20260509013506 | 8 | 0 | 0.0 | 0.0 | 0.00 | 0.00 | 0.00 | 97 | 1017.1 |
| 20260509013503 | 8 | 270 | 1.6 | 3.2 | 0.00 | 0.00 | 0.00 | 99 | 1019.4 |
| 20260509013005 | 8 | 0 | 0.0 | 0.0 | 0.00 | 0.00 | 0.00 | 96 | 1017.2 |
| 20260509013002 | 8 | 258 | 1.6 | 3.2 | 0.00 | 0.00 | 0.00 | 99 | 1019.5 |
| 20260509012506 | 8 | 0 | 0.0 | 0.0 | 0.00 | 0.00 | 0.00 | 96 | 1017.0 |
| 20260509012503 | 8 | 255 | 1.6 | 3.2 | 0.00 | 0.00 | 0.00 | 99 | 1019.4 |
| 20260509012006 | 8 | 0 | 0.0 | 0.0 | 0.00 | 0.00 | 0.00 | 96 | 1017.1 |
| 20260509011505 | 8 | 0 | 0.0 | 0.0 | 0.00 | 0.00 | 0.00 | 96 | 1017.2 |
| 20260509011502 | 8 | 248 | 1.6 | 3.2 | 0.00 | 0.00 | 0.00 | 99 | 1019.1 |
| 20260509010506 | 8 | 0 | 0.0 | 0.0 | 0.00 | 0.00 | 0.00 | 96 | 1017.0 |
| 20260509010502 | 8 | 265 | 1.6 | 3.2 | 0.00 | 0.00 | 0.00 | 99 | 1019.3 |
| 20260509005505 | 8 | 0 | 0.0 | 0.0 | 0.00 | 0.00 | 0.00 | 96 | 1017.2 |
| 20260509005502 | 8 | 260 | 1.6 | 3.2 | 0.00 | 0.00 | 0.00 | 99 | 1019.1 |
| 20260509005006 | 8 | 0 | 0.0 | 0.0 | 0.00 | 0.00 | 0.00 | 96 | 1017.2 |
| 20260509005003 | 8 | 258 | 1.6 | 3.2 | 0.00 | 0.00 | 0.00 | 99 | 1019.2 |
| 20260509004505 | 8 | 0 | 0.0 | 0.0 | 0.00 | 0.00 | 0.00 | 96 | 1017.3 |
| 20260509004005 | 8 | 0 | 0.0 | 0.0 | 0.00 | 0.00 | 0.00 | 96 | 1017.2 |
| 20260509004003 | 8 | 268 | 3.2 | 3.2 | 0.00 | 0.00 | 0.00 | 99 | 1019.3 |
| 20260509003506 | 8 | 0 | 0.0 | 0.0 | 0.00 | 0.00 | 0.00 | 96 | 1017.2 |
| 20260509003503 | 8 | 306 | 1.6 | 3.2 | 0.00 | 0.00 | 0.00 | 99 | 1019.3 |
| 20260509003006 | 8 | 0 | 0.0 | 0.0 | 0.00 | 0.00 | 0.00 | 96 | 1017.3 |
| 20260509003003 | 8 | 281 | 0.0 | 3.2 | 0.00 | 0.00 | 0.00 | 99 | 1019.4 |
| 20260509002505 | 8 | 0 | 0.0 | 0.0 | 0.00 | 0.00 | 0.00 | 96 | 1017.2 |
| 20260509002503 | 8 | 246 | 0.0 | 1.6 | 0.00 | 0.00 | 0.00 | 99 | 1019.4 |
| 20260509002006 | 8 | 0 | 0.0 | 0.0 | 0.00 | 0.00 | 0.00 | 96 | 1017.2 |
| 20260509002003 | 8 | 248 | 0.0 | 1.6 | 0.00 | 0.00 | 0.00 | 99 | 1019.4 |
| 20260509001505 | 8 | 0 | 0.0 | 0.0 | 0.00 | 0.00 | 0.00 | 96 | 1017.4 |
| 20260509001503 | 8 | 314 | 0.0 | 1.6 | 0.00 | 0.00 | 0.00 | 99 | 1019.4 |
| 20260509001005 | 8 | 0 | 0.0 | 0.0 | 0.00 | 0.00 | 0.00 | 96 | 1017.3 |
| 20260509001003 | 8 | 314 | 0.0 | 1.6 | 0.00 | 0.00 | 0.00 | 98 | 1019.5 |
| 20260509000506 | 8 | 0 | 0.0 | 0.0 | 0.00 | 0.00 | 0.00 | 95 | 1017.2 |
| 20260509000503 | 8 | 225 | 0.0 | 1.6 | 0.00 | 0.00 | 0.00 | 98 | 1019.4 |
| 20260509000009 | 8 | 225 | 1.6 | 3.2 | 0.00 | 0.00 | 0.00 | 98 | 1019.5 |
| 20260509000005 | 8 | 0 | 0.0 | 0.0 | 0.00 | 0.00 | 0.00 | 95 | 1017.4 |
| 20260508235505 | 8 | 0 | 0.0 | 0.0 | 0.00 | 0.00 | 0.00 | 95 | 1017.4 |
| 20260508235502 | 8 | 229 | 1.6 | 3.2 | 0.00 | 0.00 | 0.00 | 98 | 1019.6 |
| 20260508235006 | 8 | 0 | 0.0 | 0.0 | 0.00 | 0.00 | 0.00 | 95 | 1017.3 |
| 20260508234505 | 9 | 0 | 0.0 | 0.0 | 0.00 | 0.00 | 0.00 | 95 | 1017.4 |
| 20260508234503 | 8 | 247 | 1.6 | 3.2 | 0.00 | 0.00 | 0.00 | 98 | 1019.4 |
| 20260508234006 | 9 | 0 | 0.0 | 0.0 | 0.00 | 0.00 | 0.00 | 95 | 1017.3 |
| 20260508234003 | 8 | 225 | 1.6 | 3.2 | 0.00 | 0.00 | 0.00 | 98 | 1019.2 |
| 20260508233505 | 9 | 0 | 0.0 | 0.0 | 0.00 | 0.00 | 0.00 | 95 | 1017.4 |
| 20260508232506 | 9 | 0 | 0.0 | 0.0 | 0.00 | 0.00 | 0.00 | 95 | 1017.3 |
| 20260508232503 | 8 | 225 | 0.0 | 3.2 | 0.00 | 0.00 | 0.00 | 98 | 1019.5 |
| 20260508232005 | 9 | 0 | 0.0 | 0.0 | 0.00 | 0.00 | 0.00 | 95 | 1017.4 |
| 20260508231006 | 9 | 0 | 0.0 | 0.0 | 0.00 | 0.00 | 0.00 | 95 | 1017.3 |
| 20260508231003 | 8 | 0 | 0.0 | 0.0 | 0.00 | 0.00 | 0.00 | 98 | 1019.4 |
| 20260508230505 | 9 | 0 | 0.0 | 0.0 | 0.00 | 0.00 | 0.00 | 95 | 1017.4 |
| 20260508230005 | 9 | 0 | 0.0 | 0.0 | 0.00 | 0.00 | 0.00 | 95 | 1017.5 |
| 20260508225505 | 9 | 0 | 0.0 | 0.0 | 0.00 | 0.00 | 0.00 | 95 | 1017.5 |
| 20260508225503 | 8 | 225 | 0.0 | 1.6 | 0.00 | 0.00 | 0.00 | 98 | 1019.7 |
| 20260508225003 | 8 | 0 | 0.0 | 0.0 | 0.00 | 0.00 | 0.00 | 97 | 1019.5 |
| 20260508224506 | 9 | 0 | 0.0 | 0.0 | 0.00 | 0.00 | 0.00 | 95 | 1017.5 |
| 20260508224502 | 8 | 0 | 0.0 | 0.0 | 0.00 | 0.00 | 0.00 | 97 | 1019.6 |
| 20260508224006 | 9 | 0 | 0.0 | 0.0 | 0.00 | 0.00 | 0.00 | 95 | 1017.3 |
| 20260508224003 | 8 | 135 | 0.0 | 1.6 | 0.00 | 0.00 | 0.00 | 97 | 1019.5 |
| 20260508223503 | 8 | 135 | 0.0 | 1.6 | 0.00 | 0.00 | 0.00 | 97 | 1019.5 |
| 20260508223006 | 9 | 0 | 0.0 | 0.0 | 0.00 | 0.00 | 0.00 | 95 | 1017.5 |
| 20260508223003 | 8 | 0 | 0.0 | 0.0 | 0.00 | 0.00 | 0.00 | 97 | 1019.6 |
| 20260508222005 | 9 | 0 | 0.0 | 0.0 | 0.00 | 0.00 | 0.00 | 95 | 1017.5 |
| 20260508222002 | 8 | 225 | 0.0 | 1.6 | 0.00 | 0.00 | 0.00 | 97 | 1019.8 |
| 20260508221506 | 9 | 0 | 0.0 | 0.0 | 0.00 | 0.00 | 0.00 | 94 | 1017.4 |
| 20260508221503 | 8 | 225 | 1.6 | 3.2 | 0.00 | 0.00 | 0.00 | 97 | 1019.6 |
| 20260508221006 | 9 | 0 | 0.0 | 0.0 | 0.00 | 0.00 | 0.00 | 94 | 1017.5 |
| 20260508221003 | 8 | 234 | 1.6 | 3.2 | 0.00 | 0.00 | 0.00 | 97 | 1019.5 |
| 20260508220505 | 9 | 0 | 0.0 | 0.0 | 0.00 | 0.00 | 0.00 | 94 | 1017.4 |
| 20260508220503 | 8 | 248 | 1.6 | 3.2 | 0.00 | 0.00 | 0.00 | 96 | 1019.4 |
| 20260508220010 | 8 | 251 | 1.6 | 3.2 | 0.00 | 0.00 | 0.00 | 96 | 1019.4 |
| 20260508220006 | 9 | 0 | 0.0 | 0.0 | 0.00 | 0.00 | 0.00 | 94 | 1017.3 |
| 20260508215505 | 9 | 0 | 0.0 | 0.0 | 0.00 | 0.00 | 0.00 | 94 | 1017.3 |
| 20260508215503 | 8 | 238 | 1.6 | 3.2 | 0.00 | 0.00 | 0.00 | 96 | 1019.6 |
| 20260508215006 | 9 | 0 | 0.0 | 0.0 | 0.00 | 0.00 | 0.00 | 94 | 1017.3 |
| 20260508215003 | 8 | 245 | 1.6 | 3.2 | 0.00 | 0.00 | 0.00 | 96 | 1019.5 |
| 20260508214505 | 9 | 0 | 0.0 | 0.0 | 0.00 | 0.00 | 0.00 | 94 | 1017.3 |
| 20260508214502 | 8 | 269 | 0.0 | 1.6 | 0.00 | 0.00 | 0.00 | 96 | 1019.3 |
| 20260508214003 | 8 | 270 | 0.0 | 1.6 | 0.00 | 0.00 | 0.00 | 96 | 1019.4 |
| 20260508213506 | 9 | 0 | 0.0 | 0.0 | 0.00 | 0.00 | 0.00 | 94 | 1017.4 |
| 20260508213503 | 8 | 270 | 0.0 | 1.6 | 0.00 | 0.00 | 0.00 | 96 | 1019.6 |
| 20260508213003 | 8 | 270 | 0.0 | 1.6 | 0.00 | 0.00 | 0.00 | 96 | 1019.6 |
| 20260508212505 | 9 | 0 | 0.0 | 0.0 | 0.00 | 0.00 | 0.00 | 94 | 1017.4 |
| 20260508212503 | 8 | 270 | 0.0 | 1.6 | 0.00 | 0.00 | 0.00 | 95 | 1019.4 |
| 20260508212006 | 9 | 0 | 0.0 | 0.0 | 0.00 | 0.00 | 0.00 | 93 | 1017.4 |
| 20260508212003 | 8 | 270 | 0.0 | 1.6 | 0.00 | 0.00 | 0.00 | 94 | 1019.4 |
| 20260508211506 | 9 | 0 | 0.0 | 0.0 | 0.00 | 0.00 | 0.00 | 93 | 1017.4 |
| 20260508211503 | 8 | 270 | 0.0 | 1.6 | 0.00 | 0.00 | 0.00 | 94 | 1019.5 |
| 20260508211005 | 9 | 0 | 0.0 | 0.0 | 0.00 | 0.00 | 0.00 | 93 | 1017.5 |
| 20260508210505 | 9 | 0 | 0.0 | 0.0 | 0.00 | 0.00 | 0.00 | 93 | 1017.5 |
| 20260508210503 | 8 | 271 | 0.0 | 1.6 | 0.00 | 0.00 | 0.00 | 94 | 1019.5 |
| 20260508210009 | 8 | 271 | 0.0 | 1.6 | 0.00 | 0.00 | 0.00 | 94 | 1019.6 |
| 20260508210005 | 9 | 0 | 0.0 | 0.0 | 0.00 | 0.00 | 0.00 | 93 | 1017.6 |
| 20260508205505 | 9 | 0 | 0.0 | 0.0 | 0.00 | 0.00 | 0.00 | 93 | 1017.5 |
| 20260508205503 | 8 | 266 | 1.6 | 3.2 | 0.00 | 0.00 | 0.00 | 94 | 1019.8 |
| 20260508205003 | 8 | 265 | 0.0 | 3.2 | 0.00 | 0.00 | 0.00 | 94 | 1019.5 |
| 20260508204506 | 9 | 0 | 0.0 | 0.0 | 0.00 | 0.00 | 0.00 | 92 | 1017.6 |
| 20260508204005 | 9 | 0 | 0.0 | 0.0 | 0.00 | 0.00 | 0.00 | 92 | 1017.7 |
| 20260508204003 | 9 | 227 | 1.6 | 3.2 | 0.00 | 0.00 | 0.00 | 93 | 1019.6 |
| 20260508203506 | 9 | 0 | 0.0 | 0.0 | 0.00 | 0.00 | 0.00 | 92 | 1017.6 |
| 20260508203005 | 9 | 0 | 0.0 | 0.0 | 0.00 | 0.00 | 0.00 | 92 | 1017.5 |
| 20260508203002 | 9 | 230 | 1.6 | 1.6 | 0.00 | 0.00 | 0.00 | 93 | 1019.5 |
| 20260508202506 | 9 | 0 | 0.0 | 0.0 | 0.00 | 0.00 | 0.00 | 91 | 1017.4 |
| 20260508202503 | 9 | 232 | 0.0 | 1.6 | 0.00 | 0.00 | 0.00 | 92 | 1019.8 |
| 20260508202005 | 9 | 0 | 0.0 | 0.0 | 0.00 | 0.00 | 0.00 | 91 | 1017.5 |
| 20260508202003 | 9 | 225 | 0.0 | 1.6 | 0.00 | 0.00 | 0.00 | 92 | 1019.6 |
| 20260508201505 | 9 | 0 | 0.0 | 0.0 | 0.00 | 0.00 | 0.00 | 91 | 1017.7 |
| 20260508201503 | 9 | 0 | 0.0 | 0.0 | 0.00 | 0.00 | 0.00 | 92 | 1019.6 |
| 20260508201006 | 9 | 0 | 0.0 | 0.0 | 0.00 | 0.00 | 0.00 | 91 | 1017.4 |
| 20260508201003 | 9 | 0 | 0.0 | 0.0 | 0.00 | 0.00 | 0.00 | 92 | 1019.5 |
| 20260508200505 | 9 | 0 | 0.0 | 0.0 | 0.00 | 0.00 | 0.00 | 90 | 1017.5 |
| 20260508200502 | 9 | 270 | 0.0 | 1.6 | 0.00 | 0.00 | 0.00 | 92 | 1019.4 |
| 20260508200009 | 9 | 273 | 1.6 | 3.2 | 0.00 | 0.00 | 0.00 | 91 | 1019.5 |
| 20260508200006 | 9 | 0 | 0.0 | 0.0 | 0.00 | 0.00 | 0.00 | 90 | 1017.5 |
| 20260508195505 | 9 | 0 | 0.0 | 0.0 | 0.00 | 0.00 | 0.00 | 90 | 1017.6 |
| 20260508195503 | 9 | 274 | 1.6 | 3.2 | 0.00 | 0.00 | 0.00 | 91 | 1019.5 |
| 20260508195006 | 9 | 0 | 0.0 | 0.0 | 0.00 | 0.00 | 0.00 | 90 | 1017.5 |
| 20260508194506 | 9 | 0 | 0.0 | 0.0 | 0.00 | 0.00 | 0.00 | 90 | 1017.5 |
| 20260508194503 | 9 | 270 | 0.0 | 1.6 | 0.00 | 0.00 | 0.00 | 91 | 1019.4 |
| 20260508194005 | 10 | 0 | 0.0 | 0.0 | 0.00 | 0.00 | 0.00 | 90 | 1017.5 |
| 20260508194003 | 9 | 270 | 1.6 | 3.2 | 0.00 | 0.00 | 0.00 | 90 | 1019.5 |
| 20260508193505 | 10 | 0 | 0.0 | 0.0 | 0.00 | 0.00 | 0.00 | 89 | 1017.5 |
| 20260508193503 | 9 | 270 | 1.6 | 3.2 | 0.00 | 0.00 | 0.00 | 90 | 1019.3 |
| 20260508193006 | 10 | 0 | 0.0 | 0.0 | 0.00 | 0.00 | 0.00 | 89 | 1017.4 |
| 20260508193003 | 9 | 270 | 0.0 | 1.6 | 0.00 | 0.00 | 0.00 | 90 | 1019.4 |
| 20260508192505 | 10 | 0 | 0.0 | 0.0 | 0.00 | 0.00 | 0.00 | 89 | 1017.4 |
| 20260508192503 | 9 | 270 | 0.0 | 3.2 | 0.00 | 0.00 | 0.00 | 90 | 1019.4 |
| 20260508192006 | 10 | 0 | 0.0 | 0.0 | 0.00 | 0.00 | 0.00 | 89 | 1017.4 |
| 20260508192003 | 9 | 270 | 1.6 | 3.2 | 0.00 | 0.00 | 0.00 | 89 | 1019.3 |
| 20260508191505 | 10 | 0 | 0.0 | 0.0 | 0.00 | 0.00 | 0.00 | 88 | 1017.5 |
| 20260508191503 | 9 | 255 | 1.6 | 3.2 | 0.00 | 0.00 | 0.00 | 89 | 1019.5 |
| 20260508191005 | 10 | 0 | 0.0 | 0.0 | 0.00 | 0.00 | 0.00 | 87 | 1017.4 |
| 20260508191003 | 9 | 244 | 1.6 | 3.2 | 0.00 | 0.00 | 0.00 | 89 | 1019.3 |
| 20260508190506 | 10 | 0 | 0.0 | 0.0 | 0.00 | 0.00 | 0.00 | 87 | 1017.2 |
| 20260508190009 | 9 | 270 | 1.6 | 3.2 | 0.00 | 0.00 | 0.00 | 88 | 1019.4 |
| 20260508190005 | 10 | 0 | 0.0 | 0.0 | 0.00 | 0.00 | 0.00 | 87 | 1017.3 |
| 20260508185505 | 10 | 0 | 0.0 | 0.0 | 0.00 | 0.00 | 0.00 | 86 | 1017.3 |
| 20260508185006 | 10 | 0 | 0.0 | 0.0 | 0.00 | 0.00 | 0.00 | 86 | 1017.2 |
| 20260508185003 | 10 | 282 | 3.2 | 4.8 | 0.00 | 0.00 | 0.00 | 88 | 1019.3 |
| 20260508184505 | 10 | 0 | 0.0 | 0.0 | 0.00 | 0.00 | 0.00 | 86 | 1017.2 |
| 20260508184503 | 10 | 289 | 3.2 | 4.8 | 0.00 | 0.00 | 0.00 | 88 | 1019.4 |
| 20260508184003 | 10 | 296 | 1.6 | 4.8 | 0.00 | 0.00 | 0.00 | 87 | 1019.1 |
| 20260508183506 | 10 | 0 | 0.0 | 0.0 | 0.00 | 0.00 | 0.00 | 86 | 1017.0 |
| 20260508183503 | 10 | 273 | 1.6 | 3.2 | 0.00 | 0.00 | 0.00 | 87 | 1019.1 |
| 20260508183005 | 10 | 0 | 0.0 | 0.0 | 0.00 | 0.00 | 0.00 | 86 | 1017.0 |
| 20260508183002 | 10 | 283 | 1.6 | 3.2 | 0.00 | 0.00 | 0.00 | 86 | 1019.0 |
| 20260508182505 | 10 | 1 | 0.0 | 1.6 | 0.00 | 0.00 | 0.00 | 86 | 1017.0 |
| 20260508182503 | 10 | 23 | 1.6 | 3.2 | 0.00 | 0.00 | 0.00 | 86 | 1019.0 |
| 20260508182006 | 10 | 337 | 1.6 | 3.2 | 0.00 | 0.00 | 0.00 | 86 | 1016.8 |
| 20260508182003 | 10 | 9 | 1.6 | 3.2 | 0.00 | 0.00 | 0.00 | 86 | 1018.7 |
| 20260508181505 | 10 | 335 | 1.6 | 3.2 | 0.00 | 0.00 | 0.00 | 85 | 1016.7 |
| 20260508181005 | 10 | 270 | 0.0 | 1.6 | 0.00 | 0.00 | 0.00 | 85 | 1016.7 |
| 20260508180506 | 10 | 270 | 1.6 | 3.2 | 0.00 | 0.00 | 0.00 | 85 | 1016.6 |
| 20260508180503 | 10 | 276 | 0.0 | 3.2 | 0.00 | 0.00 | 0.00 | 85 | 1018.6 |
| 20260508180009 | 10 | 357 | 1.6 | 4.8 | 0.00 | 0.00 | 0.00 | 85 | 1018.6 |
| 20260508175506 | 10 | 307 | 3.2 | 4.8 | 0.00 | 0.00 | 0.00 | 85 | 1016.6 |
| 20260508175503 | 10 | 20 | 3.2 | 4.8 | 0.00 | 0.00 | 0.00 | 85 | 1018.6 |
| 20260508175005 | 10 | 323 | 1.6 | 4.8 | 0.00 | 0.00 | 0.00 | 84 | 1016.7 |
| 20260508175003 | 10 | 354 | 3.2 | 3.2 | 0.00 | 0.00 | 0.00 | 84 | 1018.6 |
| 20260508174505 | 10 | 291 | 0.0 | 4.8 | 0.00 | 0.00 | 0.00 | 84 | 1016.6 |
| 20260508173505 | 10 | 359 | 4.8 | 6.4 | 0.00 | 0.00 | 0.00 | 84 | 1016.7 |
| 20260508173503 | 10 | 357 | 3.2 | 6.4 | 0.00 | 0.00 | 0.00 | 84 | 1018.6 |
| 20260508173003 | 10 | 333 | 3.2 | 6.4 | 0.00 | 0.00 | 0.00 | 84 | 1018.5 |
| 20260508172505 | 10 | 298 | 4.8 | 6.4 | 0.00 | 0.00 | 0.00 | 84 | 1016.7 |
| 20260508172503 | 10 | 6 | 4.8 | 6.4 | 0.00 | 0.00 | 0.00 | 84 | 1018.6 |
| 20260508172006 | 10 | 297 | 4.8 | 6.4 | 0.00 | 0.00 | 0.00 | 84 | 1016.5 |
| 20260508171505 | 10 | 313 | 4.8 | 8.0 | 0.00 | 0.00 | 0.00 | 84 | 1016.6 |
| 20260508171503 | 10 | 333 | 4.8 | 12.9 | 0.00 | 0.00 | 0.00 | 83 | 1018.6 |
| 20260508171005 | 10 | 303 | 6.4 | 8.0 | 0.00 | 0.00 | 0.00 | 83 | 1016.7 |
| 20260508171002 | 10 | 359 | 6.4 | 12.9 | 0.00 | 0.00 | 0.00 | 83 | 1018.3 |
| 20260508170505 | 10 | 339 | 4.8 | 9.7 | 0.00 | 0.00 | 0.00 | 83 | 1016.6 |
| 20260508170503 | 10 | 6 | 6.4 | 12.9 | 0.00 | 0.00 | 0.00 | 83 | 1018.4 |
| 20260508170009 | 10 | 330 | 6.4 | 12.9 | 0.00 | 0.00 | 0.00 | 83 | 1018.4 |
| 20260508170005 | 10 | 348 | 6.4 | 9.7 | 0.00 | 0.00 | 0.00 | 83 | 1016.7 |
| 20260508165505 | 10 | 310 | 6.4 | 9.7 | 0.00 | 0.00 | 0.00 | 83 | 1016.6 |
| 20260508165503 | 10 | 295 | 6.4 | 11.3 | 0.00 | 0.00 | 0.00 | 83 | 1018.2 |
| 20260508165006 | 10 | 297 | 6.4 | 8.0 | 0.00 | 0.00 | 0.00 | 83 | 1016.6 |
| 20260508165004 | 10 | 351 | 6.4 | 8.0 | 0.00 | 0.00 | 0.00 | 83 | 1018.4 |
| 20260508164505 | 10 | 323 | 6.4 | 9.7 | 0.00 | 0.00 | 0.00 | 83 | 1016.7 |
| 20260508164503 | 10 | 13 | 6.4 | 9.7 | 0.00 | 0.00 | 0.00 | 83 | 1018.5 |
| 20260508163505 | 11 | 321 | 6.4 | 9.7 | 0.00 | 0.00 | 0.00 | 82 | 1016.6 |
| 20260508163503 | 10 | 341 | 6.4 | 9.7 | 0.00 | 0.00 | 0.00 | 83 | 1018.3 |
| 20260508163005 | 11 | 303 | 6.4 | 9.7 | 0.00 | 0.00 | 0.00 | 82 | 1016.7 |
| 20260508163003 | 10 | 354 | 6.4 | 9.7 | 0.00 | 0.00 | 0.00 | 82 | 1018.4 |
| 20260508162506 | 11 | 294 | 4.8 | 6.4 | 0.00 | 0.00 | 0.00 | 82 | 1016.4 |
| 20260508162503 | 11 | 331 | 4.8 | 6.4 | 0.00 | 0.00 | 0.00 | 82 | 1018.5 |
| 20260508162005 | 11 | 305 | 4.8 | 8.0 | 0.00 | 0.00 | 0.00 | 82 | 1016.4 |
| 20260508162003 | 11 | 310 | 4.8 | 8.0 | 0.00 | 0.00 | 0.00 | 82 | 1018.5 |
| 20260508161505 | 11 | 298 | 6.4 | 8.0 | 0.00 | 0.00 | 0.00 | 82 | 1016.5 |
| 20260508161503 | 11 | 299 | 4.8 | 8.0 | 0.00 | 0.00 | 0.00 | 81 | 1018.3 |
| 20260508161006 | 11 | 280 | 6.4 | 8.0 | 0.00 | 0.00 | 0.00 | 81 | 1016.6 |
| 20260508161003 | 11 | 280 | 4.8 | 8.0 | 0.00 | 0.00 | 0.00 | 81 | 1018.4 |
| 20260508160503 | 11 | 290 | 4.8 | 8.0 | 0.00 | 0.00 | 0.00 | 80 | 1018.3 |
| 20260508160005 | 11 | 292 | 4.8 | 6.4 | 0.00 | 0.00 | 0.00 | 81 | 1016.4 |
| 20260508155503 | 11 | 291 | 6.4 | 11.3 | 0.00 | 0.00 | 0.00 | 80 | 1018.4 |
| 20260508155005 | 11 | 309 | 8.0 | 9.7 | 0.00 | 0.00 | 0.00 | 82 | 1016.5 |
| 20260508155003 | 11 | 287 | 8.0 | 11.3 | 0.00 | 0.00 | 0.00 | 81 | 1018.5 |
| 20260508154505 | 11 | 288 | 6.4 | 9.7 | 0.00 | 0.00 | 0.00 | 82 | 1016.4 |
| 20260508154503 | 11 | 283 | 6.4 | 11.3 | 0.00 | 0.00 | 0.00 | 82 | 1018.1 |
| 20260508154003 | 11 | 284 | 4.8 | 6.4 | 0.00 | 0.00 | 0.00 | 82 | 1018.2 |
| 20260508153505 | 11 | 309 | 4.8 | 6.4 | 0.00 | 0.00 | 0.00 | 82 | 1016.5 |
| 20260508153503 | 11 | 296 | 4.8 | 6.4 | 0.00 | 0.00 | 0.00 | 82 | 1018.3 |
| 20260508153005 | 11 | 292 | 6.4 | 11.3 | 0.00 | 0.00 | 0.00 | 82 | 1016.3 |
| 20260508152503 | 11 | 284 | 6.4 | 11.3 | 0.00 | 0.00 | 0.00 | 82 | 1018.2 |
| 20260508152006 | 11 | 293 | 6.4 | 8.0 | 0.00 | 0.00 | 0.00 | 82 | 1016.4 |
| 20260508152003 | 11 | 270 | 6.4 | 8.0 | 0.00 | 0.00 | 0.00 | 81 | 1018.1 |
| 20260508151502 | 11 | 290 | 6.4 | 8.0 | 0.00 | 0.00 | 0.00 | 81 | 1018.1 |
| 20260508151003 | 11 | 302 | 6.4 | 8.0 | 0.00 | 0.00 | 0.00 | 81 | 1018.3 |
| 20260508150506 | 11 | 292 | 8.0 | 12.9 | 0.00 | 0.00 | 0.00 | 82 | 1016.5 |
| 20260508150005 | 11 | 277 | 8.0 | 12.9 | 0.00 | 0.00 | 0.00 | 82 | 1016.4 |
| 20260508145506 | 11 | 257 | 8.0 | 9.7 | 0.00 | 0.00 | 0.00 | 82 | 1016.4 |
| 20260508145503 | 11 | 280 | 6.4 | 8.0 | 0.00 | 0.00 | 0.00 | 82 | 1018.2 |
| 20260508145005 | 11 | 255 | 8.0 | 9.7 | 0.00 | 0.00 | 0.00 | 82 | 1016.4 |
| 20260508145003 | 11 | 270 | 6.4 | 9.7 | 0.00 | 0.00 | 0.00 | 81 | 1018.3 |
| 20260508144505 | 11 | 267 | 6.4 | 9.7 | 0.00 | 0.00 | 0.00 | 82 | 1016.4 |
| 20260508144503 | 11 | 290 | 6.4 | 9.7 | 0.00 | 0.00 | 0.00 | 82 | 1018.2 |
| 20260508144006 | 11 | 293 | 6.4 | 11.3 | 0.00 | 0.00 | 0.00 | 82 | 1016.3 |
| 20260508144003 | 11 | 289 | 6.4 | 8.0 | 0.00 | 0.00 | 0.00 | 82 | 1018.1 |
| 20260508143505 | 11 | 297 | 8.0 | 11.3 | 0.00 | 0.00 | 0.00 | 83 | 1016.4 |
| 20260508143005 | 11 | 288 | 8.0 | 11.3 | 0.00 | 0.00 | 0.00 | 83 | 1016.4 |
| 20260508142505 | 11 | 271 | 6.4 | 11.3 | 0.00 | 0.00 | 0.00 | 84 | 1016.4 |
| 20260508142503 | 11 | 304 | 6.4 | 11.3 | 0.00 | 0.00 | 0.00 | 84 | 1018.3 |
| 20260508142006 | 11 | 283 | 6.4 | 8.0 | 0.00 | 0.00 | 0.00 | 83 | 1016.4 |
| 20260508142003 | 10 | 300 | 6.4 | 8.0 | 0.00 | 0.00 | 0.00 | 84 | 1018.1 |
| 20260508141505 | 11 | 283 | 6.4 | 8.0 | 0.00 | 0.00 | 0.00 | 84 | 1016.4 |
| 20260508141503 | 10 | 295 | 4.8 | 8.0 | 0.00 | 0.00 | 0.00 | 84 | 1018.2 |
| 20260508141003 | 10 | 285 | 4.8 | 6.4 | 0.00 | 0.03 | 0.00 | 84 | 1018.2 |
| 20260508140506 | 11 | 278 | 4.8 | 4.8 | 0.00 | 0.00 | 0.00 | 84 | 1016.4 |
| 20260508140503 | 10 | 285 | 4.8 | 6.4 | 0.00 | 0.03 | 0.00 | 84 | 1018.2 |
| 20260508140009 | 10 | 296 | 4.8 | 6.4 | 0.00 | 0.03 | 0.00 | 84 | 1018.1 |
| 20260508140005 | 11 | 323 | 4.8 | 6.4 | 0.00 | 0.00 | 0.00 | 84 | 1016.5 |
| 20260508135506 | 11 | 327 | 4.8 | 8.0 | 0.00 | 0.00 | 0.00 | 83 | 1016.5 |
| 20260508135503 | 10 | 302 | 4.8 | 6.4 | 0.00 | 0.03 | 0.00 | 84 | 1018.4 |
| 20260508135005 | 11 | 329 | 4.8 | 8.0 | 0.00 | 0.00 | 0.00 | 83 | 1016.5 |
| 20260508135003 | 10 | 317 | 4.8 | 6.4 | 0.00 | 0.03 | 0.00 | 83 | 1018.3 |
| 20260508134505 | 11 | 311 | 4.8 | 6.4 | 0.00 | 0.00 | 0.00 | 83 | 1016.6 |
| 20260508134503 | 10 | 338 | 3.2 | 6.4 | 0.00 | 0.03 | 0.00 | 83 | 1018.3 |
| 20260508134005 | 11 | 308 | 6.4 | 8.0 | 0.00 | 0.00 | 0.00 | 83 | 1016.6 |
| 20260508133505 | 11 | 312 | 6.4 | 8.0 | 0.00 | 0.00 | 0.00 | 83 | 1016.5 |
| 20260508133503 | 10 | 336 | 6.4 | 9.7 | 0.00 | 0.03 | 0.00 | 84 | 1018.3 |
| 20260508133005 | 11 | 311 | 6.4 | 8.0 | 0.00 | 0.00 | 0.00 | 83 | 1016.5 |
| 20260508133003 | 10 | 307 | 4.8 | 6.4 | 0.00 | 0.03 | 0.00 | 83 | 1018.4 |
| 20260508132503 | 10 | 331 | 6.4 | 11.3 | 0.00 | 0.03 | 0.00 | 83 | 1018.3 |
| 20260508131505 | 11 | 320 | 8.0 | 12.9 | 0.00 | 0.00 | 0.00 | 82 | 1016.6 |
| 20260508131007 | 11 | 302 | 8.0 | 12.9 | 0.00 | 0.03 | 0.00 | 82 | 1018.6 |
| 20260508131005 | 11 | 318 | 8.0 | 12.9 | 0.00 | 0.00 | 0.00 | 82 | 1016.6 |
| 20260508130505 | 11 | 318 | 8.0 | 12.9 | 0.00 | 0.00 | 0.00 | 82 | 1016.6 |
| 20260508130503 | 11 | 301 | 8.0 | 12.9 | 0.00 | 0.03 | 0.00 | 81 | 1018.4 |
| 20260508130009 | 11 | 300 | 6.4 | 12.9 | 0.00 | 0.03 | 0.00 | 81 | 1018.5 |
| 20260508130006 | 11 | 321 | 8.0 | 12.9 | 0.00 | 0.00 | 0.00 | 82 | 1016.6 |
| 20260508125505 | 11 | 296 | 6.4 | 11.3 | 0.00 | 0.00 | 0.00 | 82 | 1016.7 |
| 20260508125005 | 11 | 280 | 6.4 | 11.3 | 0.00 | 0.00 | 0.00 | 82 | 1016.6 |
| 20260508125003 | 11 | 294 | 6.4 | 11.3 | 0.00 | 0.03 | 0.00 | 82 | 1018.3 |
| 20260508124506 | 11 | 282 | 6.4 | 9.7 | 0.00 | 0.00 | 0.00 | 83 | 1016.6 |
| 20260508124503 | 11 | 301 | 6.4 | 9.7 | 0.00 | 0.03 | 0.00 | 82 | 1018.4 |
| 20260508124005 | 11 | 285 | 6.4 | 9.7 | 0.00 | 0.00 | 0.00 | 83 | 1016.4 |
| 20260508124003 | 11 | 313 | 6.4 | 11.3 | 0.00 | 0.03 | 0.00 | 82 | 1018.4 |
| 20260508123005 | 11 | 304 | 4.8 | 8.0 | 0.00 | 0.00 | 0.00 | 83 | 1016.6 |
| 20260508123003 | 11 | 295 | 4.8 | 8.0 | 0.00 | 0.03 | 0.00 | 82 | 1018.4 |
| 20260508122506 | 11 | 297 | 6.4 | 8.0 | 0.00 | 0.00 | 0.00 | 82 | 1016.4 |
| 20260508122503 | 11 | 273 | 4.8 | 8.0 | 0.00 | 0.03 | 0.00 | 82 | 1018.4 |
| 20260508122005 | 11 | 291 | 6.4 | 8.0 | 0.00 | 0.00 | 0.00 | 83 | 1016.5 |
| 20260508122003 | 11 | 288 | 4.8 | 8.0 | 0.00 | 0.03 | 0.00 | 82 | 1018.4 |
| 20260508121505 | 11 | 308 | 4.8 | 8.0 | 0.00 | 0.00 | 0.00 | 83 | 1016.4 |
| 20260508121503 | 11 | 293 | 4.8 | 8.0 | 0.00 | 0.03 | 0.00 | 82 | 1018.2 |
| 20260508121006 | 11 | 318 | 6.4 | 6.4 | 0.00 | 0.00 | 0.00 | 83 | 1016.6 |
| 20260508120505 | 11 | 318 | 6.4 | 9.7 | 0.00 | 0.00 | 0.00 | 83 | 1016.5 |
| 20260508120503 | 11 | 311 | 6.4 | 9.7 | 0.00 | 0.03 | 0.00 | 82 | 1018.4 |
| 20260508120009 | 11 | 312 | 6.4 | 9.7 | 0.00 | 0.03 | 0.00 | 84 | 1018.3 |
| 20260508120005 | 11 | 313 | 6.4 | 9.7 | 0.00 | 0.00 | 0.00 | 83 | 1016.5 |
| 20260508115506 | 11 | 290 | 8.0 | 11.3 | 0.00 | 0.00 | 0.00 | 84 | 1016.5 |
| 20260508115503 | 10 | 305 | 6.4 | 11.3 | 0.00 | 0.03 | 0.00 | 84 | 1018.2 |
| 20260508115005 | 11 | 287 | 8.0 | 11.3 | 0.00 | 0.00 | 0.00 | 84 | 1016.5 |
| 20260508115003 | 10 | 291 | 8.0 | 11.3 | 0.00 | 0.03 | 0.00 | 85 | 1018.1 |
| 20260508114505 | 11 | 297 | 4.8 | 11.3 | 0.00 | 0.00 | 0.00 | 86 | 1016.4 |
| 20260508114503 | 10 | 282 | 6.4 | 11.3 | 0.00 | 0.03 | 0.00 | 85 | 1018.3 |
| 20260508114003 | 10 | 267 | 4.8 | 6.4 | 0.00 | 0.03 | 0.00 | 85 | 1018.1 |
| 20260508113503 | 10 | 261 | 4.8 | 6.4 | 0.00 | 0.03 | 0.00 | 85 | 1018.1 |
| 20260508113005 | 10 | 313 | 4.8 | 6.4 | 0.00 | 0.00 | 0.00 | 86 | 1016.5 |
| 20260508113003 | 10 | 309 | 4.8 | 6.4 | 0.00 | 0.03 | 0.00 | 85 | 1018.0 |
| 20260508112006 | 10 | 313 | 4.8 | 6.4 | 0.00 | 0.00 | 0.00 | 85 | 1016.4 |
| 20260508112003 | 10 | 282 | 4.8 | 6.4 | 0.00 | 0.03 | 0.00 | 85 | 1018.0 |
| 20260508111503 | 10 | 288 | 6.4 | 6.4 | 0.00 | 0.03 | 0.00 | 85 | 1018.0 |
| 20260508111005 | 10 | 291 | 6.4 | 8.0 | 0.00 | 0.00 | 0.00 | 86 | 1016.4 |
| 20260508111003 | 10 | 297 | 4.8 | 6.4 | 0.00 | 0.03 | 0.00 | 85 | 1018.0 |
| 20260508110506 | 10 | 299 | 4.8 | 6.4 | 0.00 | 0.00 | 0.00 | 86 | 1016.3 |
| 20260508110503 | 10 | 303 | 4.8 | 6.4 | 0.00 | 0.03 | 0.00 | 85 | 1018.2 |
| 20260508110009 | 10 | 292 | 6.4 | 6.4 | 0.00 | 0.03 | 0.00 | 85 | 1018.0 |
| 20260508110005 | 10 | 296 | 6.4 | 6.4 | 0.00 | 0.00 | 0.00 | 85 | 1016.3 |
| 20260508105506 | 10 | 288 | 6.4 | 11.3 | 0.00 | 0.00 | 0.00 | 85 | 1016.4 |
| 20260508105503 | 10 | 272 | 6.4 | 11.3 | 0.00 | 0.03 | 0.00 | 85 | 1018.2 |
| 20260508105005 | 10 | 280 | 8.0 | 11.3 | 0.00 | 0.00 | 0.00 | 86 | 1016.2 |
| 20260508104505 | 10 | 285 | 6.4 | 11.3 | 0.00 | 0.00 | 0.00 | 86 | 1016.2 |
| 20260508104503 | 10 | 292 | 6.4 | 8.0 | 0.00 | 0.03 | 0.00 | 85 | 1018.1 |
| 20260508104006 | 10 | 308 | 6.4 | 8.0 | 0.00 | 0.00 | 0.00 | 86 | 1016.2 |
| 20260508103505 | 10 | 307 | 6.4 | 8.0 | 0.00 | 0.00 | 0.00 | 86 | 1016.2 |
| 20260508103503 | 10 | 302 | 6.4 | 8.0 | 0.00 | 0.03 | 0.00 | 85 | 1017.9 |
| 20260508103005 | 10 | 323 | 6.4 | 8.0 | 0.00 | 0.00 | 0.00 | 86 | 1016.1 |
| 20260508102005 | 10 | 323 | 6.4 | 8.0 | 0.00 | 0.00 | 0.00 | 87 | 1016.0 |
| 20260508102003 | 10 | 354 | 4.8 | 6.4 | 0.00 | 0.03 | 0.00 | 86 | 1017.9 |
| 20260508101505 | 10 | 288 | 3.2 | 6.4 | 0.00 | 0.00 | 0.00 | 87 | 1016.1 |
| 20260508101503 | 10 | 9 | 4.8 | 6.4 | 0.00 | 0.03 | 0.00 | 87 | 1018.1 |
| 20260508101003 | 10 | 333 | 4.8 | 6.4 | 0.00 | 0.03 | 0.00 | 87 | 1018.0 |
| 20260508100503 | 10 | 286 | 3.2 | 4.8 | 0.00 | 0.03 | 0.00 | 87 | 1018.1 |
| 20260508095505 | 10 | 295 | 3.2 | 6.4 | 0.00 | 0.00 | 0.00 | 88 | 1016.3 |
| 20260508095503 | 10 | 303 | 3.2 | 4.8 | 0.00 | 0.03 | 0.00 | 88 | 1018.3 |
| 20260508095005 | 10 | 326 | 4.8 | 6.4 | 0.00 | 0.00 | 0.00 | 88 | 1016.2 |
| 20260508095003 | 10 | 308 | 4.8 | 6.4 | 0.00 | 0.03 | 0.00 | 88 | 1018.1 |
| 20260508094503 | 10 | 329 | 4.8 | 6.4 | 0.00 | 0.03 | 0.00 | 88 | 1018.2 |
| 20260508094005 | 10 | 326 | 4.8 | 9.7 | 0.00 | 0.00 | 0.00 | 88 | 1016.2 |
| 20260508094003 | 10 | 346 | 4.8 | 8.0 | 0.00 | 0.03 | 0.00 | 88 | 1018.0 |
| 20260508093505 | 10 | 326 | 6.4 | 9.7 | 0.00 | 0.00 | 0.00 | 88 | 1016.2 |
| 20260508093503 | 10 | 335 | 6.4 | 8.0 | 0.00 | 0.03 | 0.00 | 88 | 1018.1 |
| 20260508093003 | 10 | 300 | 6.4 | 8.0 | 0.00 | 0.03 | 0.00 | 88 | 1018.1 |
| 20260508092505 | 10 | 305 | 4.8 | 8.0 | 0.00 | 0.00 | 0.00 | 88 | 1016.1 |
| 20260508092503 | 10 | 300 | 4.8 | 8.0 | 0.00 | 0.03 | 0.00 | 88 | 1018.0 |
| 20260508092005 | 10 | 291 | 6.4 | 8.0 | 0.00 | 0.00 | 0.00 | 88 | 1016.0 |
| 20260508092003 | 10 | 318 | 4.8 | 8.0 | 0.00 | 0.03 | 0.00 | 88 | 1017.9 |
| 20260508091505 | 10 | 306 | 6.4 | 8.0 | 0.00 | 0.00 | 0.00 | 89 | 1016.0 |
| 20260508091503 | 10 | 319 | 6.4 | 8.0 | 0.00 | 0.03 | 0.00 | 89 | 1018.1 |
| 20260508091005 | 10 | 319 | 6.4 | 8.0 | 0.00 | 0.00 | 0.00 | 89 | 1016.1 |
| 20260508091003 | 10 | 325 | 6.4 | 9.7 | 0.00 | 0.03 | 0.00 | 89 | 1018.1 |
| 20260508090505 | 10 | 319 | 6.4 | 9.7 | 0.00 | 0.00 | 0.00 | 89 | 1016.0 |
| 20260508090503 | 10 | 341 | 6.4 | 9.7 | 0.00 | 0.03 | 0.00 | 90 | 1018.1 |
| 20260508090009 | 10 | 353 | 6.4 | 9.7 | 0.00 | 0.03 | 0.00 | 90 | 1018.0 |
| 20260508090006 | 10 | 317 | 6.4 | 9.7 | 0.00 | 0.00 | 0.00 | 90 | 1016.0 |
| 20260508085505 | 10 | 312 | 6.4 | 9.7 | 0.00 | 0.00 | 0.00 | 90 | 1015.8 |
| 20260508085503 | 10 | 338 | 4.8 | 9.7 | 0.00 | 0.03 | 0.00 | 91 | 1017.7 |
| 20260508085005 | 10 | 320 | 4.8 | 8.0 | 0.00 | 0.00 | 0.00 | 91 | 1015.8 |
| 20260508085003 | 10 | 320 | 4.8 | 9.7 | 0.00 | 0.03 | 0.00 | 92 | 1017.8 |
| 20260508084505 | 10 | 301 | 6.4 | 8.0 | 0.00 | 0.00 | 0.00 | 91 | 1015.8 |
| 20260508084503 | 10 | 345 | 6.4 | 8.0 | 0.00 | 0.03 | 0.00 | 93 | 1017.8 |
| 20260508084005 | 10 | 303 | 6.4 | 12.9 | 0.00 | 0.00 | 0.00 | 92 | 1015.9 |
| 20260508084002 | 9 | 5 | 6.4 | 8.0 | 0.00 | 0.03 | 0.00 | 93 | 1017.9 |
| 20260508083505 | 10 | 317 | 6.4 | 12.9 | 0.00 | 0.00 | 0.00 | 92 | 1015.8 |
| 20260508083005 | 9 | 315 | 6.4 | 12.9 | 0.00 | 0.00 | 0.00 | 93 | 1015.7 |
| 20260508083003 | 9 | 327 | 8.0 | 12.9 | 0.00 | 0.03 | 0.00 | 94 | 1017.7 |
| 20260508082505 | 9 | 322 | 6.4 | 8.0 | 0.00 | 0.00 | 0.00 | 93 | 1015.5 |
| 20260508082503 | 9 | 328 | 6.4 | 9.7 | 0.00 | 0.03 | 0.00 | 94 | 1017.5 |
| 20260508082005 | 9 | 318 | 6.4 | 8.0 | 0.00 | 0.00 | 0.00 | 93 | 1015.6 |
| 20260508082003 | 9 | 347 | 6.4 | 8.0 | 0.00 | 0.03 | 0.00 | 94 | 1017.3 |
| 20260508081505 | 9 | 312 | 6.4 | 8.0 | 0.00 | 0.00 | 0.00 | 94 | 1015.4 |
| 20260508081503 | 9 | 356 | 6.4 | 12.9 | 0.00 | 0.03 | 0.00 | 94 | 1017.5 |
| 20260508081005 | 9 | 312 | 8.0 | 8.0 | 0.00 | 0.00 | 0.00 | 94 | 1015.5 |
| 20260508081003 | 9 | 354 | 6.4 | 12.9 | 0.00 | 0.03 | 0.00 | 94 | 1017.3 |
| 20260508080505 | 8 | 320 | 8.0 | 8.0 | 0.00 | 0.00 | 0.00 | 93 | 1015.5 |
| 20260508080503 | 8 | 1 | 6.4 | 8.0 | 0.00 | 0.03 | 0.00 | 94 | 1017.4 |
| 20260508080008 | 8 | 351 | 6.4 | 8.0 | 0.00 | 0.03 | 0.00 | 95 | 1017.5 |
| 20260508080005 | 8 | 317 | 4.8 | 8.0 | 0.00 | 0.00 | 0.00 | 93 | 1015.3 |
| 20260508075503 | 8 | 325 | 4.8 | 6.4 | 0.00 | 0.03 | 0.00 | 95 | 1017.4 |
| 20260508075006 | 8 | 318 | 4.8 | 6.4 | 0.00 | 0.00 | 0.00 | 93 | 1015.6 |
| 20260508074505 | 9 | 305 | 4.8 | 6.4 | 0.00 | 0.00 | 0.00 | 94 | 1015.6 |
| 20260508074503 | 8 | 285 | 4.8 | 6.4 | 0.00 | 0.03 | 0.00 | 95 | 1017.5 |
| 20260508074005 | 8 | 321 | 3.2 | 6.4 | 0.00 | 0.00 | 0.00 | 94 | 1015.6 |
| 20260508073505 | 8 | 308 | 4.8 | 9.7 | 0.00 | 0.00 | 0.00 | 94 | 1015.5 |
| 20260508073503 | 8 | 342 | 4.8 | 8.0 | 0.00 | 0.03 | 0.00 | 95 | 1017.4 |
| 20260508073003 | 8 | 348 | 6.4 | 8.0 | 0.00 | 0.03 | 0.00 | 95 | 1017.4 |
| 20260508072505 | 8 | 304 | 6.4 | 11.3 | 0.00 | 0.00 | 0.00 | 94 | 1015.4 |
| 20260508072503 | 8 | 324 | 6.4 | 11.3 | 0.00 | 0.03 | 0.00 | 96 | 1017.4 |
| 20260508072006 | 8 | 297 | 8.0 | 11.3 | 0.00 | 0.00 | 0.00 | 94 | 1015.3 |
| 20260508071505 | 8 | 280 | 8.0 | 11.3 | 0.00 | 0.00 | 0.00 | 95 | 1015.3 |
| 20260508071503 | 8 | 322 | 6.4 | 11.3 | 0.00 | 0.03 | 0.00 | 96 | 1017.4 |
| 20260508071005 | 8 | 297 | 6.4 | 9.7 | 0.00 | 0.00 | 0.00 | 95 | 1015.3 |
| 20260508071003 | 8 | 312 | 6.4 | 11.3 | 0.00 | 0.03 | 0.00 | 96 | 1017.4 |
| 20260508070506 | 8 | 305 | 6.4 | 6.4 | 0.00 | 0.00 | 0.00 | 95 | 1015.4 |
| 20260508070503 | 8 | 298 | 6.4 | 11.3 | 0.00 | 0.03 | 0.00 | 96 | 1017.4 |
| 20260508070009 | 8 | 289 | 6.4 | 9.7 | 0.00 | 0.03 | 0.00 | 97 | 1017.3 |
| 20260508070005 | 8 | 285 | 6.4 | 9.7 | 0.00 | 0.00 | 0.00 | 96 | 1015.2 |
| 20260508065506 | 8 | 294 | 8.0 | 9.7 | 0.00 | 0.00 | 0.00 | 96 | 1015.2 |
| 20260508065503 | 8 | 284 | 8.0 | 9.7 | 0.00 | 0.03 | 0.00 | 97 | 1017.3 |
| 20260508065005 | 8 | 313 | 6.4 | 9.7 | 0.00 | 0.00 | 0.00 | 96 | 1015.2 |
| 20260508065003 | 8 | 307 | 6.4 | 11.3 | 0.00 | 0.03 | 0.00 | 98 | 1017.2 |
| 20260508064505 | 8 | 321 | 6.4 | 9.7 | 0.00 | 0.00 | 0.00 | 96 | 1015.2 |
| 20260508064005 | 8 | 299 | 4.8 | 8.0 | 0.00 | 0.00 | 0.00 | 97 | 1015.2 |
| 20260508064003 | 8 | 295 | 4.8 | 8.0 | 0.00 | 0.03 | 0.00 | 99 | 1017.1 |
| 20260508063505 | 8 | 294 | 6.4 | 8.0 | 0.00 | 0.00 | 0.00 | 97 | 1015.0 |
| 20260508063503 | 8 | 319 | 4.8 | 6.4 | 0.00 | 0.03 | 0.00 | 99 | 1016.9 |
| 20260508063006 | 8 | 324 | 6.4 | 9.7 | 0.00 | 0.03 | 0.00 | 97 | 1015.1 |
| 20260508063003 | 8 | 336 | 6.4 | 9.7 | 0.00 | 0.03 | 0.00 | 99 | 1016.8 |
| 20260508062505 | 8 | 344 | 6.4 | 11.3 | 0.00 | 0.03 | 0.00 | 98 | 1014.9 |
| 20260508062503 | 8 | 335 | 6.4 | 11.3 | 0.00 | 0.05 | 0.00 | 99 | 1017.1 |
| 20260508062005 | 8 | 336 | 6.4 | 11.3 | 0.00 | 0.05 | 0.00 | 98 | 1015.0 |
| 20260508062003 | 8 | 328 | 6.4 | 11.3 | 0.00 | 0.10 | 0.00 | 99 | 1016.9 |
| 20260508061504 | 8 | 323 | 4.8 | 8.0 | 0.00 | 0.10 | 0.00 | 99 | 1016.9 |
| 20260508061006 | 8 | 345 | 6.4 | 8.0 | 0.00 | 0.05 | 0.00 | 98 | 1015.0 |
| 20260508061003 | 8 | 335 | 4.8 | 6.4 | 0.00 | 0.10 | 0.00 | 99 | 1017.1 |
| 20260508060505 | 8 | 344 | 4.8 | 6.4 | 0.00 | 0.10 | 0.00 | 98 | 1014.9 |
| 20260508060006 | 8 | 291 | 4.8 | 8.0 | 0.00 | 0.10 | 0.00 | 98 | 1014.8 |
| 20260508055505 | 8 | 317 | 4.8 | 8.0 | 0.00 | 0.10 | 0.00 | 98 | 1014.9 |
| 20260508055503 | 8 | 341 | 4.8 | 6.4 | 0.00 | 0.13 | 0.00 | 99 | 1016.6 |